[[{"header":{"parameterUnit":"m.s-1","parameterCategory":1,"la1":30.2991,"la2":30.254,"lo1":-89.0895,"lo2":-89.0444,"dy":0.0017,"dx":0.0017,"nx":28,"ny":28,"refTime":"2025-07-18T09:00:00:Z","depth":0,"parameterNumber":2,"parameterNumberName":"U-component_of_WINDS"},"data":[0,0,0,0,0,0,0,0,0,0,0,0,0,0,0,0,0,0,0,0,0,0,0,0,0,0,0,0,0,0,0,0,0,0,0,0,0,0,0,0,0,0,0,0,0,0,0,0,0,0,0,0,0,0,0,0,0,0,3.0221,3.0221,0,3.0203,3.0203,3.0202,3.0095,3.0092,3.009,3.0087,3.0072,3.0074,3.0076,0,0,0,0,0,0,0,0,0,0,0,0,0,3.0165,3.0167,3.0221,3.0221,3.022,3.0203,3.0203,3.0202,3.0096,3.0092,3.0089,3.0086,3.0072,3.0074,3.0077,0,0,0,0,0,0,0,0,0,0,0,0,0,3.0173,3.0167,3.0221,3.0165,3.016,3.0203,3.0203,3.0202,3.0096,3.0092,3.0088,3.0085,3.0071,3.0074,3.0077,3.0174,0,0,3.0086,3.0087,0,0,0,0,0,0,0,0,3.0172,3.0175,3.0173,3.0169,3.0163,3.0147,3.0177,3.0193,3.0097,3.012,3.0087,3.0083,3.0101,3.0101,3.0106,3.0173,3.0172,3.0086,3.0088,3.009,3.009,0,0,0,0,0,0,0,3.0172,3.0175,3.0214,3.0173,3.0167,3.0141,3.0138,3.018,3.0133,3.0118,3.011,3.0109,3.0097,3.0104,3.0105,3.0172,3.0086,3.0089,3.0091,3.0092,3.0315,3.0318,0,0,0,0,0,0,3.0179,3.0175,3.0214,3.0213,3.0158,3.0146,3.0142,3.0156,3.0132,3.0124,3.0113,3.0104,3.01,3.0102,3.0104,3.0213,3.009,3.0092,3.0094,3.0311,3.0315,3.032,0,0,0,0,0,0,3.0178,3.0183,3.0215,3.0192,3.0194,3.0151,3.0168,3.0158,3.0164,3.0128,3.0119,3.0128,3.0097,3.01,3.0156,3.0211,3.0094,3.0096,3.0306,3.0312,3.0318,3.0433,0,0,0,0,0,0,3.0177,3.0184,3.0219,3.0194,3.0196,3.0267,3.0171,3.016,3.0169,3.0158,3.014,3.0133,3.0094,3.0152,3.0159,3.0213,3.0099,3.03,3.0308,3.0316,3.0424,3.0443,3.0458,0,0,0,0,0,3.0175,3.0254,3.0222,3.0227,3.0239,3.027,3.0271,3.0225,3.0174,3.021,3.0186,3.0133,3.0205,3.0159,3.0166,3.0221,3.0297,3.0306,3.0315,3.0417,3.0439,3.0458,0,0,0,0,0,0,3.0289,3.025,3.0213,3.0286,3.0282,3.0252,3.0295,3.025,3.0262,3.0251,3.0194,3.019,3.0255,3.0244,3.0194,3.0313,3.0242,3.0253,3.0316,3.0337,3.0354,3.0354,3.0101,0,0,0,0,0,3.0322,3.035,3.0315,3.0382,3.0382,3.0339,3.0351,3.0315,3.0309,3.0308,3.0288,3.0286,3.0307,3.0322,3.034,3.0424,3.0417,3.0465,3.0482,3.0496,3.0505,3.0546,3.0566,3.035,3.035,3.035,0,0,3.0392,3.0374,3.0395,3.0404,3.0397,3.0426,3.0339,3.0375,3.0396,3.0313,3.0364,3.035,3.0343,3.0413,3.0443,3.0406,3.0564,3.0508,3.052,3.0521,3.0558,3.0578,3.0596,3.0356,3.0355,3.0354,0,0,3.0532,3.0522,3.0575,3.057,3.0559,3.053,3.0544,3.0521,3.0507,3.0557,3.0495,3.0521,3.056,3.0556,3.056,3.0699,3.065,3.0707,3.0795,3.0835,3.0852,3.0867,3.0913,3.0931,3.0717,3.0718,3.0718,0,3.0619,3.066,3.0609,3.0648,3.0653,3.0579,3.0632,3.063,3.0627,3.0633,3.0592,3.0638,3.0628,3.0695,3.0728,3.0735,3.0747,3.0707,3.0854,3.0868,3.0881,3.0925,3.0943,3.0724,3.0724,3.0723,3.0722,0,3.0766,3.0796,3.0841,3.0837,3.0848,3.0895,3.0851,3.0869,3.0833,3.0809,3.086,3.0846,3.0858,3.0873,3.0839,3.0934,3.0911,3.0864,3.079,3.0909,3.0949,3.0966,3.0734,3.0732,3.073,3.0728,0,0,3.0975,3.0942,3.0959,3.0956,3.0939,3.0961,3.1005,3.1016,3.1031,3.1032,3.1066,3.11,3.1055,3.1059,3.1025,3.1061,3.1168,3.1008,3.1007,3.1035,3.1269,3.1302,3.1323,3.1137,3.114,3.1143,3.1269,0,3.1106,3.1176,3.1131,3.1208,3.1233,3.1164,3.1202,3.1196,3.1175,3.1195,3.1172,3.1196,3.1137,3.1138,3.1171,3.1148,3.1214,3.1139,3.1167,3.1168,3.1166,3.1344,3.138,3.1499,3.1284,3.1287,3.1289,0,3.1268,3.1273,3.1352,3.1328,3.1338,3.1372,3.1377,3.1398,3.139,3.1372,3.1377,3.1333,3.1374,3.1305,3.1359,3.1309,3.1319,3.131,3.1313,3.1311,3.1233,3.1343,3.1536,3.1553,3.1314,3.1312,3.131,0,3.1408,3.1436,3.1485,3.1485,3.146,3.1485,3.1476,3.1464,3.1473,3.1479,3.1484,3.1496,3.1502,3.1512,3.1473,3.1426,3.1532,3.146,3.1517,3.1518,3.1539,3.1538,3.1732,3.1552,3.1552,3.1552,3.1551,0,3.1556,3.1606,3.1547,3.1577,3.1631,3.1581,3.1636,3.162,3.161,3.1636,3.158,3.1606,3.1553,3.1575,3.1545,3.1593,3.1597,3.1583,3.1574,3.1586,3.1587,3.1588,3.1578,3.1556,3.1555,3.1554,3.1554,0,3.172,3.1682,3.1731,3.1703,3.1697,3.1738,3.1714,3.1741,3.1717,3.1751,3.1756,3.1718,3.174,3.1702,3.1721,3.17,3.1767,3.1747,3.1768,3.1761,3.1818,3.1812,3.2018,3.2041,3.185,3.1852,3.1853,0,3.1815,3.1851,3.1826,3.1839,3.1832,3.1854,3.1862,3.1815,3.1826,3.182,3.1848,3.1864,3.1874,3.1913,3.1887,3.19,3.1878,3.1949,3.1879,3.189,3.1874,3.1871,3.1873,3.1962,3.1965,3.1966,3.1968,0,3.1986,3.1966,3.1979,3.1986,3.1997,3.2001,3.2,3.2015,3.1964,3.198,3.2,3.2009,3.2026,3.2043,3.205,3.2041,3.1996,3.1991,3.2004,3.2014,3.2024,3.2016,3.1803,3.1985,3.1984,3.1982,3.1981,3.1981,3.2115,3.2143,3.213,3.2146,3.2141,3.2142,3.2165,3.2143,3.2159,3.2167,3.214,3.2167,3.2158,3.2162,3.2158,3.2179,3.2147,3.2167,3.2172,3.2176,3.2184,3.2024,3.2181,3.218,3.218,3.2179,3.2179,0,3.2281,3.2268,3.2284,3.2284,3.2297,3.2254,3.2252,3.2265,3.2289,3.2284,3.2295,3.2318,3.2334,3.2311,3.2322,3.2343,3.2323,3.2348,3.2344,3.2342,3.2213,3.2199,3.2364,3.2364,3.2364,3.2364,3.2364,3.2364,3.2368,3.2412,3.239,3.2431,3.2419,3.2443,3.2445,3.2445,3.244,3.2468,3.2481,3.2465,3.2452,3.2463,3.2476,3.2468,3.2474,3.2505,3.2491,3.237,3.2351,3.2334,3.232,3.2508,3.2508,3.2617,3.2618,3.2619]},{"header":{"parameterUnit":"m.s-1","parameterCategory":1,"la1":30.2991,"la2":30.254,"lo1":-89.0895,"lo2":-89.0444,"dy":0.0017,"dx":0.0017,"nx":28,"ny":28,"refTime":"2025-07-18T09:00:00:Z","depth":0,"parameterNumber":3,"parameterNumberName":"V-component_of_WINDS"},"data":[0,0,0,0,0,0,0,0,0,0,0,0,0,0,0,0,0,0,0,0,0,0,0,0,0,0,0,0,0,0,0,0,0,0,0,0,0,0,0,0,0,0,0,0,0,0,0,0,0,0,0,0,0,0,0,0,0,0,4.0916,4.0918,0,4.1137,4.1139,4.1142,4.1167,4.1165,4.1163,4.1161,4.1379,4.1387,4.1394,0,0,0,0,0,0,0,0,0,0,0,0,0,4.0506,4.0514,4.0915,4.0918,4.0921,4.1136,4.1139,4.1142,4.1168,4.1165,4.1163,4.116,4.1377,4.1386,4.1395,0,0,0,0,0,0,0,0,0,0,0,0,0,4.0701,4.0516,4.0915,4.096,4.0966,4.1136,4.1139,4.1143,4.1168,4.1165,4.1162,4.1159,4.1374,4.1385,4.1396,4.1534,0,0,4.1432,4.1437,0,0,0,0,0,0,0,0,4.069,4.0716,4.0951,4.0957,4.0965,4.1121,4.1075,4.1274,4.1169,4.1091,4.1161,4.1157,4.1295,4.1313,4.1362,4.1544,4.1553,4.1433,4.1441,4.1446,4.1449,0,0,0,0,0,0,0,4.0676,4.0707,4.1003,4.0954,4.0962,4.0966,4.099,4.1113,4.1209,4.1098,4.11,4.1127,4.1299,4.135,4.1367,4.1557,4.1433,4.1443,4.1451,4.1455,4.1859,4.1863,0,0,0,0,0,0,4.0656,4.0695,4.0996,4.1009,4.0817,4.0976,4.1003,4.1074,4.1208,4.1225,4.1129,4.1127,4.1332,4.1353,4.1375,4.1543,4.1445,4.1456,4.1463,4.1856,4.186,4.1864,0,0,0,0,0,0,4.0647,4.0682,4.0987,4.0853,4.0892,4.0987,4.1066,4.108,4.1132,4.1231,4.1247,4.1165,4.133,4.1358,4.1494,4.1551,4.1462,4.1472,4.1851,4.1857,4.1862,4.1881,0,0,0,0,0,0,4.0635,4.0679,4.0735,4.0854,4.0899,4.1106,4.107,4.1087,4.1153,4.1153,4.1269,4.1285,4.133,4.1476,4.1506,4.1565,4.1482,4.1847,4.1854,4.186,4.1876,4.1886,4.1896,0,0,0,0,0,4.062,4.073,4.0738,4.0774,4.0971,4.1109,4.1134,4.1186,4.1158,4.1213,4.1276,4.1282,4.154,4.149,4.1523,4.1587,4.1843,4.1852,4.186,4.1871,4.1884,4.1895,0,0,0,0,0,0,4.0613,4.0747,4.0756,4.0909,4.0998,4.1113,4.1184,4.1198,4.1295,4.129,4.1346,4.1372,4.1505,4.156,4.1502,4.1725,4.1688,4.1704,4.1686,4.1699,4.1709,4.1692,4.1491,0,0,0,0,0,4.0629,4.0733,4.0843,4.0966,4.1011,4.109,4.1151,4.1183,4.1276,4.1313,4.1386,4.1474,4.1574,4.164,4.1738,4.1883,4.1907,4.1943,4.1953,4.1961,4.1973,4.2051,4.2068,4.1891,4.1891,4.1891,0,0,4.0663,4.0749,4.0811,4.0967,4.104,4.1142,4.1121,4.1231,4.1307,4.1329,4.1463,4.1519,4.162,4.176,4.1826,4.181,4.2027,4.1971,4.1977,4.1985,4.2061,4.2078,4.2093,4.1897,4.1896,4.1895,0,0,4.0778,4.0855,4.0965,4.1038,4.1149,4.1201,4.1227,4.1341,4.1379,4.1515,4.1533,4.1621,4.1794,4.1865,4.1924,4.2062,4.207,4.2092,4.2144,4.222,4.2234,4.2246,4.2294,4.231,4.2104,4.2104,4.2104,0,4.0806,4.0965,4.102,4.113,4.1196,4.1223,4.1333,4.14,4.1536,4.158,4.156,4.1777,4.1847,4.2003,4.2037,4.2084,4.2113,4.208,4.2228,4.2241,4.2253,4.2299,4.2317,4.2106,4.2106,4.2106,4.2106,0,4.0993,4.1102,4.1177,4.131,4.1385,4.1494,4.1562,4.1631,4.1655,4.1707,4.1842,4.1927,4.2042,4.2081,4.2105,4.224,4.2226,4.2217,4.218,4.2271,4.2315,4.2333,4.2109,4.2108,4.2108,4.2107,0,0,4.1111,4.1271,4.1298,4.1358,4.148,4.1564,4.1672,4.1787,4.1844,4.1936,4.2026,4.2171,4.2162,4.2228,4.226,4.2326,4.2428,4.2308,4.2311,4.2326,4.2579,4.2585,4.2605,4.2434,4.2437,4.244,4.257,0,4.1239,4.1437,4.1488,4.1655,4.1754,4.178,4.1874,4.1957,4.2008,4.2097,4.2152,4.2253,4.2235,4.2275,4.2342,4.2402,4.2479,4.2393,4.2515,4.2519,4.2489,4.2628,4.2636,4.2754,4.2587,4.259,4.2592,0,4.1416,4.1513,4.1691,4.1799,4.1842,4.1926,4.2034,4.212,4.2214,4.2246,4.2319,4.2344,4.2454,4.2411,4.2562,4.2502,4.2554,4.2591,4.2597,4.261,4.2561,4.2643,4.2793,4.281,4.262,4.2618,4.2616,0,4.1482,4.1657,4.1786,4.1836,4.1966,4.2024,4.2079,4.217,4.2235,4.2327,4.2369,4.2473,4.2529,4.2606,4.2657,4.2622,4.2802,4.2765,4.2829,4.2828,4.2866,4.2863,4.3025,4.2901,4.2901,4.29,4.29,0,4.162,4.1727,4.1817,4.1896,4.2015,4.2071,4.2187,4.2243,4.2323,4.241,4.2437,4.2517,4.258,4.2668,4.2708,4.2825,4.285,4.2876,4.2886,4.2874,4.2871,4.2909,4.2902,4.2905,4.2904,4.2903,4.2902,0,4.1714,4.178,4.1921,4.2032,4.2062,4.2145,4.2238,4.2314,4.2365,4.2475,4.2503,4.2582,4.2687,4.2746,4.2877,4.2903,4.3033,4.3038,4.3003,4.3006,4.3067,4.306,4.3259,4.3287,4.3145,4.3146,4.3147,0,4.1798,4.1881,4.2001,4.2063,4.2121,4.222,4.2286,4.2342,4.241,4.2521,4.2582,4.2689,4.2778,4.2943,4.301,4.311,4.3117,4.3179,4.3132,4.3117,4.3116,4.311,4.3117,4.3188,4.3189,4.319,4.3191,0,4.1939,4.1966,4.2063,4.217,4.2249,4.2336,4.2421,4.2469,4.2538,4.2612,4.2721,4.279,4.2924,4.3028,4.3133,4.3186,4.3199,4.3205,4.3225,4.3214,4.3189,4.3202,4.3024,4.32,4.3199,4.3199,4.3198,4.3198,4.203,4.2104,4.22,4.2306,4.2376,4.2455,4.2531,4.2591,4.2684,4.28,4.2826,4.294,4.3027,4.3169,4.3225,4.3313,4.3301,4.333,4.3337,4.3343,4.3345,4.3176,4.3332,4.3332,4.3331,4.3331,4.3331,0,4.2171,4.2234,4.233,4.245,4.2531,4.2539,4.2633,4.27,4.2801,4.2883,4.297,4.3093,4.3194,4.3268,4.337,4.3425,4.3433,4.345,4.3446,4.3458,4.3351,4.3323,4.3441,4.3441,4.3441,4.3441,4.3441,4.3441,4.2254,4.238,4.2418,4.2577,4.2638,4.2753,4.2805,4.2876,4.2942,4.3079,4.3164,4.3213,4.3291,4.3398,4.3489,4.3508,4.3544,4.356,4.3579,4.3477,4.3465,4.3454,4.3428,4.3567,4.3567,4.3678,4.3679,4.368]}]]